COSMOS 2219 (22219 NORAD) Tracking and Keplerian Element Data

This shows tracking and keplerian element data for the satellite.

Feedback or suggestion? Click here.




ElementValue
Catalog22219
NameCOSMOS 2219
Epoch Orbit50441
Epoch Day15.89934853
Epoch Year2022
RAAN301.4088
Inclination71.0602
Eccentricity0.0018271
Argument of Perigee346.7435
Mean Anonmoly13.3204
Mean Motion14.13671452
Decay Rate2.99E-06
L11 22219U 92076A 22015.89934853 .00000299 00000+0 18308-3 0 9991
L22 22219 71.0602 301.4088 0018271 346.7435 13.3204 14.13671452504410

Live tracking and technical data element details for COSMOS 2219 (NORAD 22219). COSMOS 2219 can be tracked NOW for your location showing map with azimuth and elevation plus other details from your city location.

Track the satellite on the map from your city or location and see movement details for azimuth, elevation, latitude, longitude, range, height, and movement on the map or in text.







IsCatalogInMostPopularTable: catalog: 22219, numindb: 119
Update: records affected: 1



GetName: 22219 COSMOS 2219

Hit Count: updated at: Mon, 17 Jan 2022 00:22:30 GMT